TimeEST,TemperatureF,Dew PointF,Humidity,Sea Level PressureIn,VisibilityMPH,Wind Direction,Wind SpeedMPH,Gust SpeedMPH,PrecipitationIn,Events,Conditions,WindDirDegrees,DateUTC
12:55 AM,38.7,38.5,99,29.41,4.0,WNW,9.2,-,0.00,,Overcast,290,2012-12-19 05:55:00
1:30 AM,39.2,39.2,100,29.42,8.0,WNW,8.1,-,N/A,,Overcast,300,2012-12-19 06:30:00
1:55 AM,38.7,37.9,97,29.42,10.0,NW,12.7,-,N/A,,Overcast,310,2012-12-19 06:55:00
2:11 AM,39.2,37.4,93,29.43,10.0,NW,11.5,-,N/A,,Overcast,310,2012-12-19 07:11:00
2:55 AM,38.8,37.0,93,29.43,10.0,NW,15.0,-,N/A,,Overcast,320,2012-12-19 07:55:00
3:55 AM,38.3,36.1,92,29.44,10.0,NW,12.7,-,N/A,,Overcast,320,2012-12-19 08:55:00
4:55 AM,38.7,36.0,90,29.45,10.0,WNW,9.2,-,N/A,,Overcast,290,2012-12-19 09:55:00
5:05 AM,39.2,35.6,87,29.45,6.0,WNW,8.1,-,N/A,Rain,Light Rain,290,2012-12-19 10:05:00
5:55 AM,38.7,37.0,94,29.47,6.0,WNW,10.4,-,0.00,Rain,Light Rain,300,2012-12-19 10:55:00
6:31 AM,39.2,37.4,93,29.48,5.0,WNW,9.2,-,N/A,Rain,Light Rain,290,2012-12-19 11:31:00
6:55 AM,38.7,37.9,97,29.49,4.0,WNW,8.1,-,0.01,Rain,Light Rain,300,2012-12-19 11:55:00
7:55 AM,37.8,35.8,93,29.52,4.0,NW,16.1,-,0.02,Rain,Light Rain,310,2012-12-19 12:55:00
8:25 AM,37.4,35.6,93,29.53,5.0,NW,17.3,-,N/A,Rain,Light Rain,310,2012-12-19 13:25:00
8:55 AM,37.6,35.8,93,29.54,6.0,NW,16.1,21.9,0.01,Rain,Light Rain,310,2012-12-19 13:55:00
9:55 AM,38.1,35.2,89,29.57,10.0,NW,16.1,-,0.01,Rain,Light Rain,310,2012-12-19 14:55:00
10:55 AM,39.9,37.2,90,29.58,10.0,NNW,16.1,-,0.00,Rain,Light Rain,330,2012-12-19 15:55:00
11:15 AM,39.2,35.6,87,29.59,10.0,NNW,18.4,26.5,N/A,,Overcast,330,2012-12-19 16:15:00
11:55 AM,39.7,34.7,82,29.61,10.0,North,16.1,27.6,0.00,,Overcast,350,2012-12-19 16:55:00
12:55 PM,41.0,34.3,77,29.64,10.0,NNW,13.8,-,N/A,,Overcast,340,2012-12-19 17:55:00
1:55 PM,41.5,32.9,71,29.68,10.0,North,17.3,-,N/A,,Overcast,350,2012-12-19 18:55:00
2:45 PM,41.0,35.6,81,29.71,10.0,NW,15.0,-,N/A,Rain,Light Rain,320,2012-12-19 19:45:00
2:55 PM,40.3,34.9,81,29.72,10.0,NW,12.7,-,0.00,Rain,Light Rain,320,2012-12-19 19:55:00
3:19 PM,39.2,35.6,87,29.74,10.0,NW,13.8,-,N/A,,Overcast,310,2012-12-19 20:19:00
3:55 PM,39.4,34.5,83,29.77,10.0,NW,11.5,-,0.00,,Mostly Cloudy,310,2012-12-19 20:55:00
4:55 PM,38.8,33.4,81,29.81,10.0,NW,11.5,-,N/A,,Mostly Cloudy,310,2012-12-19 21:55:00
5:55 PM,39.2,33.1,79,29.84,10.0,NNW,17.3,-,0.00,Rain,Light Rain,330,2012-12-19 22:55:00
6:55 PM,38.5,33.6,83,29.88,10.0,NNW,11.5,-,0.00,Rain,Light Rain,330,2012-12-19 23:55:00
7:55 PM,37.6,33.8,86,29.93,7.0,NNW,9.2,-,0.00,Rain,Light Rain,330,2012-12-20 00:55:00
8:55 PM,36.7,33.8,89,29.96,5.0,NNW,10.4,-,0.01,Rain,Light Rain,340,2012-12-20 01:55:00
9:55 PM,36.5,35.2,95,29.98,7.0,North,2.3,-,0.02,Rain,Light Rain,350,2012-12-20 02:55:00
10:55 PM,36.1,35.4,97,30.00,10.0,NE,3.5,-,0.00,,Overcast,50,2012-12-20 03:55:00
11:18 PM,35.6,33.8,93,30.01,5.0,NNE,8.1,-,N/A,Rain,Light Rain,30,2012-12-20 04:18:00
11:46 PM,35.6,33.8,93,30.02,10.0,North,6.9,-,N/A,,Overcast,350,2012-12-20 04:46:00
11:55 PM,35.8,33.4,91,30.03,10.0,NNW,6.9,-,0.01,,Overcast,340,2012-12-20 04:55:00